Tracking 26325 objects as of 29-Nov-2022
HD Live streaming from Space Station
objects crossing your sky now

COSMOS 1375 DEB

Track COSMOS 1375 DEB now!
10-day predictions


NORAD ID: 16202
Int'l Code: 1982-055D
Perigee: 843.4 km
Apogee: 979.3 km
Inclination: 65.8 °
Period: 103.1 minutes
Semi major axis: 7282 km
RCS: 0.038 m2 (small)
Launch date: June 6, 1982
Source: Commonwealth of Independent States (former USSR) (CIS)
Launch site: PLESETSK MISSILE AND SPACE COMPLEX (PKMTR)

Note: This is SATELLITE DEBRIS
aabbcc
Your satellite tracking list
Your tracking list is empty




NASA's NSSDC Master Catalog

Two Line Element Set (TLE):
1 16202U 82055D   22333.18732902  .00000261  00000-0  23910-3 0  9993
2 16202  65.8307  32.0940 0093281 289.1513 102.7536 13.97005838 56933
Source of the keplerian elements: AFSPC